Tracking 25689 objects as of 7-Jul-2022
HD Live streaming from Space Station
objects crossing your sky now

FENGYUN 1C DEB

Track FENGYUN 1C DEB now!
10-day predictions


NORAD ID: 30504
Int'l Code: 1999-025AHS
Perigee: 759.9 km
Apogee: 930.2 km
Inclination: 99.1 °
Period: 101.7 minutes
Semi major axis: 7216 km
RCS: 0.0107 m2 (small)
Launch date: May 10, 1999
Source: People's Republic of China (PRC)
Launch site: Taiyaun Space Center, China (TSC)

Note: This is SATELLITE DEBRIS
aabbcc
Your satellite tracking list
Your tracking list is empty




NASA's NSSDC Master Catalog

Two Line Element Set (TLE):
1 30504U 99025AHS 22187.77571148  .00000426  00000-0  22281-3 0  9997
2 30504  99.1068 188.6027 0118017 181.9900 353.4037 14.16284062796051
Source of the keplerian elements: AFSPC